Location: Kalispell
(48.1967°N, 114.3128°W)
Time: 03:50:02
(UTC-06:00)

Amateur Radio Satellites - All Passes

Search period start: 22 August 2014 03:20
Search period end: 23 August 2014 03:20
Location: Kalispell, 48.1967°N, 114.3128°W

Satellite Date Start Highest point End Downlink Frequencies (MHz)
Time Altitude Azimuth
AO-40 22 Aug 03:28:57 04:16:58 12° 229° (SW) 05:18:35 Beacon 2401.320
Uribyol 2 22 Aug 03:30:01 03:34:59 44° 99° (E) 03:39:55 436.500 FM
JAS-1B 22 Aug 03:33:39 03:40:54 42° 94° (E) 03:46:59 435.800 - 435.900 CW/SSB
Oscar 16 22 Aug 03:40:14 03:45:27 75° 287° (WNW) 03:50:38 437.025 USB, Beacon 2401.1428
AO-27 22 Aug 03:43:52 03:48:59 56° 101° (E) 03:54:03 436.795 MHz FM
OPAL 22 Aug 03:51:23 03:55:39 29° 60° (ENE) 03:59:59 ?
Sapphire 22 Aug 03:53:17 03:58:23 39° 45° (NE) 04:03:28 437.095 MHz 1200 baud AX-25 AFSK
KITSAT 1 22 Aug 04:03:59 04:11:48 50° 318° (NW) 04:19:40 435.175 FM
TMSAT-1 22 Aug 04:15:14 04:20:09 38° 97° (E) 04:25:03 436.925 FM
PCSat 22 Aug 04:23:45 04:29:11 64° 52° (NE) 04:34:33 145.825 MHz
Saudisat 1A 22 Aug 04:24:46 04:27:59 19° 330° (NNW) 04:31:12 436.775 MHz
Oscar 19 22 Aug 04:47:06 04:51:12 24° 300° (WNW) 04:55:18 437.125 CW, 437.150 USB
AO-Echo 22 Aug 04:51:11 04:55:30 35° 294° (WNW) 04:59:44 ?
Gurwin Techsat 1B 22 Aug 04:56:59 05:02:19 76° 287° (WNW) 05:07:36 435.225 FM
ITAMSAT 1 22 Aug 04:57:08 05:01:54 38° 294° (WNW) 05:06:39 435.822 SSB
AO-7 22 Aug 05:08:05 05:15:17 32° 94° (E) 05:22:24 29.400 - 29.500 MHz
Uribyol 2 22 Aug 05:09:51 05:14:17 30° 297° (WNW) 05:18:43 436.500 FM
Oscar 16 22 Aug 05:21:27 05:23:57 14° 307° (NW) 05:26:27 437.025 USB, Beacon 2401.1428
AO-27 22 Aug 05:24:03 05:28:09 24° 300° (WNW) 05:32:15 436.795 MHz FM
JAS-1B 22 Aug 05:24:15 05:31:35 44° 299° (WNW) 05:37:46 435.800 - 435.900 CW/SSB
OPAL 22 Aug 05:29:32 05:34:20 46° 259° (WSW) 05:39:15 ?
Uosat F 22 Aug 05:32:39 05:37:19 38° 98° (E) 05:41:58 435.120 FM
Sapphire 22 Aug 05:36:47 05:41:53 43° 245° (WSW) 05:46:58 437.095 MHz 1200 baud AX-25 AFSK
TMSAT-1 22 Aug 05:55:16 06:00:03 35° 295° (WNW) 06:04:48 436.925 FM
KITSAT 1 22 Aug 06:03:00 06:09:20 24° 345° (NNW) 06:15:41 435.175 FM
PCSat 22 Aug 06:07:54 06:12:10 24° 252° (WSW) 06:16:24 145.825 MHz
SO-50 22 Aug 06:29:59 06:33:37 25° 115° (ESE) 06:37:19 436.795 FM
Hamsat 22 Aug 06:30:46 06:33:25 16° 89° (E) 06:36:02 145.90 MHz
Gurwin Techsat 1B 22 Aug 06:38:44 06:41:26 14° 307° (NW) 06:44:07 435.225 FM
STRAND 1 22 Aug 06:57:32 07:02:28 52° 69° (ENE) 07:07:25 ?
AO-7 22 Aug 07:00:27 07:08:41 69° 295° (WNW) 07:16:52 29.400 - 29.500 MHz
Uosat F 22 Aug 07:11:38 07:16:02 32° 296° (WNW) 07:20:26 435.120 FM
JAS-1B 22 Aug 07:17:05 07:19:54 12° 324° (NW) 07:22:35 435.800 - 435.900 CW/SSB
JAS-2 22 Aug 07:33:11 07:38:15 50° 100° (E) 07:43:21 435.800 - 435.900 CW/SSB, 435.910 FM
UOSAT-12 22 Aug 07:44:22 07:46:10 12° 108° (ESE) 07:48:00 437.025 FM, 437.400 FM
Saudisat 1A 22 Aug 07:48:48 07:50:53 13° 19° (NNE) 07:52:57 436.775 MHz
KITSAT 1 22 Aug 08:01:30 08:07:52 24° 15° (NNE) 08:14:12 435.175 FM
Hamsat 22 Aug 08:05:27 08:09:48 62° 287° (WNW) 08:14:05 145.90 MHz
SO-50 22 Aug 08:09:29 08:13:53 52° 315° (NW) 08:18:25 436.795 FM
STRAND 1 22 Aug 08:37:52 08:41:57 24° 267° (W) 08:46:04 ?
AO-7 22 Aug 08:54:24 09:00:06 21° 318° (NW) 09:05:47 29.400 - 29.500 MHz
SO-67 22 Aug 09:08:07 09:11:35 67° 285° (WNW) 09:15:01 435.3500 MHz FM
JAS-2 22 Aug 09:18:59 09:23:08 25° 299° (WNW) 09:27:17 435.800 - 435.900 CW/SSB, 435.910 FM
UOSAT-12 22 Aug 09:20:54 09:25:32 81° 127° (SE) 09:30:16 437.025 FM, 437.400 FM
HO-68 22 Aug 09:22:14 09:27:02 19° 88° (E) 09:31:48 435.675 MHz FM
Saudisat 1A 22 Aug 09:27:30 09:31:40 39° 42° (NE) 09:35:49 436.775 MHz
RS-15 22 Aug 09:45:51 09:56:07 47° 112° (ESE) 10:06:15 29.354 - 29.394 USB, Beacon 29.352 USB
SO-50 22 Aug 09:52:41 09:55:31 16° 337° (NNW) 09:58:23 436.795 FM
KITSAT 1 22 Aug 09:57:29 10:05:21 51° 43° (NE) 10:13:10 435.175 FM
UKube-1 22 Aug 10:45:38 10:49:45 40° 99° (E) 10:53:50 145.840 MHz, 145.915 MHz
Oscar 11 22 Aug 11:01:37 11:05:44 38° 97° (E) 11:09:49 145.825 FM, Beacon 2401.500 USB
FUNcube-1 22 Aug 11:02:18 11:05:18 18° 91° (E) 11:08:19 145.950 - 145.970 MHz USB
UOSAT-12 22 Aug 11:02:27 11:06:15 24° 328° (NNW) 11:10:05 437.025 FM, 437.400 FM
Saudisat 1A 22 Aug 11:07:14 11:11:13 34° 242° (WSW) 11:15:11 436.775 MHz
HO-68 22 Aug 11:08:31 11:15:44 88° 108° (ESE) 11:22:54 435.675 MHz FM
SO-50 22 Aug 11:37:01 11:38:04 11° 2° (N) 11:39:06 436.795 FM
KITSAT 1 22 Aug 11:53:07 12:00:50 51° 245° (WSW) 12:08:30 435.175 FM
RS-15 22 Aug 11:57:13 12:08:09 64° 317° (NW) 12:19:03 29.354 - 29.394 USB, Beacon 29.352 USB
UKube-1 22 Aug 12:22:15 12:25:46 25° 297° (WNW) 12:29:16 145.840 MHz, 145.915 MHz
JAS-1B 22 Aug 12:33:32 12:39:32 19° 45° (NE) 12:45:12 435.800 - 435.900 CW/SSB
FUNcube-1 22 Aug 12:37:42 12:42:02 57° 288° (WNW) 12:46:26 145.950 - 145.970 MHz USB
Oscar 11 22 Aug 12:38:10 12:41:46 25° 295° (WNW) 12:45:21 145.825 FM, Beacon 2401.500 USB
UOSAT-12 22 Aug 12:46:31 12:48:06 11° 352° (N) 12:49:41 437.025 FM, 437.400 FM
Oscar 19 22 Aug 12:50:22 12:53:59 20° 58° (ENE) 12:57:37 437.125 CW, 437.150 USB
AO-Echo 22 Aug 12:54:30 12:55:40 11° 53° (NE) 12:56:50 ?
HO-68 22 Aug 12:57:12 13:02:38 24° 309° (NW) 13:08:04 435.675 MHz FM
ITAMSAT 1 22 Aug 13:03:27 13:05:44 13° 53° (NE) 13:08:01 435.822 SSB
Uribyol 2 22 Aug 13:14:44 13:17:55 17° 56° (NE) 13:21:05 436.500 FM
SO-50 22 Aug 13:17:12 13:20:31 19° 27° (NNE) 13:23:52 436.795 FM
Oscar 16 22 Aug 13:22:17 13:26:55 35° 65° (ENE) 13:31:36 437.025 USB, Beacon 2401.1428
AO-27 22 Aug 13:28:12 13:31:56 21° 58° (ENE) 13:35:40 436.795 MHz FM
TMSAT-1 22 Aug 14:02:52 14:05:44 15° 54° (NE) 14:08:36 436.925 FM
RS-15 22 Aug 14:13:16 14:23:01 35° 349° (NNW) 14:32:52 29.354 - 29.394 USB, Beacon 29.352 USB
JAS-1B 22 Aug 14:18:47 14:28:22 58° 65° (ENE) 14:37:13 435.800 - 435.900 CW/SSB
AO-7 22 Aug 14:22:28 14:27:37 18° 39° (NE) 14:32:45 29.400 - 29.500 MHz
Oscar 19 22 Aug 14:27:39 14:32:48 72° 257° (WSW) 14:38:00 437.125 CW, 437.150 USB
UOSAT-12 22 Aug 14:27:56 14:30:19 14° 17° (NNE) 14:32:42 437.025 FM, 437.400 FM
AO-Echo 22 Aug 14:28:28 14:33:32 62° 71° (ENE) 14:38:28 ?
ITAMSAT 1 22 Aug 14:39:12 14:44:21 72° 72° (ENE) 14:49:31 435.822 SSB
Gurwin Techsat 1B 22 Aug 14:42:32 14:47:23 38° 65° (ENE) 14:52:16 435.225 FM
Uribyol 2 22 Aug 14:51:33 14:56:43 87° 255° (WSW) 15:01:56 436.500 FM
SO-50 22 Aug 14:57:12 15:01:57 66° 48° (NE) 15:06:45 436.795 FM
ISS 22 Aug 15:00:03 15:02:59 29° 144° (SE) 15:05:56 145.800 FM
Oscar 16 22 Aug 15:01:32 15:06:15 36° 264° (W) 15:11:02 437.025 USB, Beacon 2401.1428
AO-27 22 Aug 15:05:47 15:10:57 69° 257° (WSW) 15:16:09 436.795 MHz FM
Uosat F 22 Aug 15:14:00 15:16:24 14° 54° (NE) 15:18:47 435.120 FM
TMSAT-1 22 Aug 15:39:34 15:44:51 81° 74° (ENE) 15:50:11 436.925 FM
MaSat-1 22 Aug 15:48:08 15:52:27 33° 108° (ESE) 15:57:03 437.345 MHz
UOSAT-12 22 Aug 16:07:27 16:11:50 36° 40° (NE) 16:16:11 437.025 FM, 437.400 FM
AO-Echo 22 Aug 16:08:58 16:12:41 20° 269° (W) 16:16:21 ?
JAS-1B 22 Aug 16:09:35 16:18:58 46° 264° (W) 16:27:48 435.800 - 435.900 CW/SSB
AO-7 22 Aug 16:10:39 16:18:46 59° 62° (ENE) 16:26:54 29.400 - 29.500 MHz
Oscar 19 22 Aug 16:12:36 16:13:05 10° 276° (W) 16:13:34 437.125 CW, 437.150 USB
ITAMSAT 1 22 Aug 16:20:59 16:24:23 18° 271° (W) 16:27:48 435.822 SSB
Gurwin Techsat 1B 22 Aug 16:22:33 16:27:23 35° 264° (W) 16:32:15 435.225 FM
RS-15 22 Aug 16:28:50 16:38:59 40° 23° (NNE) 16:49:21 29.354 - 29.394 USB, Beacon 29.352 USB
Uribyol 2 22 Aug 16:34:44 16:36:59 13° 273° (W) 16:39:14 436.500 FM
ISS 22 Aug 16:36:14 16:39:33 68° 342° (NNW) 16:42:52 145.800 FM
SO-50 22 Aug 16:38:33 16:42:07 21° 247° (WSW) 16:45:42 436.795 FM
Uosat F 22 Aug 16:49:22 16:54:23 78° 73° (ENE) 16:59:25 435.120 FM
TMSAT-1 22 Aug 17:22:18 17:25:26 16° 272° (W) 17:28:35 436.925 FM
MaSat-1 22 Aug 17:24:46 17:29:28 43° 309° (NW) 17:34:26 437.345 MHz
Hamsat 22 Aug 17:27:47 17:30:46 19° 62° (ENE) 17:33:46 145.90 MHz
OPAL 22 Aug 17:35:33 17:40:18 34° 98° (E) 17:45:01 ?
UOSAT-12 22 Aug 17:47:37 17:52:06 43° 240° (WSW) 17:56:31 437.025 FM, 437.400 FM
JAS-2 22 Aug 17:48:51 17:54:40 37° 65° (ENE) 17:59:54 435.800 - 435.900 CW/SSB, 435.910 FM
AO-7 22 Aug 18:04:17 18:11:54 38° 263° (W) 18:19:34 29.400 - 29.500 MHz
ISS 22 Aug 18:13:21 18:16:34 44° 2° (N) 18:19:48 145.800 FM
Uosat F 22 Aug 18:30:51 18:33:47 15° 271° (W) 18:36:43 435.120 FM
Sapphire 22 Aug 18:41:35 18:44:20 14° 103° (ESE) 18:47:06 437.095 MHz 1200 baud AX-25 AFSK
RS-15 22 Aug 18:41:53 18:52:58 86° 52° (NE) 19:04:27 29.354 - 29.394 USB, Beacon 29.352 USB
Hamsat 22 Aug 19:02:09 19:06:21 55° 260° (W) 19:10:37 145.90 MHz
MaSat-1 22 Aug 19:05:45 19:07:59 13° 331° (NNW) 19:10:13 437.345 MHz
STRAND 1 22 Aug 19:06:16 19:08:31 13° 87° (E) 19:10:45 ?
PCSat 22 Aug 19:09:59 19:14:24 26° 110° (ESE) 19:18:52 145.825 MHz
OPAL 22 Aug 19:14:24 19:19:12 39° 297° (WNW) 19:24:01 ?
JAS-2 22 Aug 19:33:31 19:39:44 43° 262° (W) 19:45:17 435.800 - 435.900 CW/SSB, 435.910 FM
SO-67 22 Aug 19:44:21 19:47:48 69° 75° (ENE) 19:51:17 435.3500 MHz FM
ISS 22 Aug 19:50:12 19:53:32 86° 20° (NNE) 19:56:53 145.800 FM
Oscar 10/S400 22 Aug 19:52:02 20:09:10 35° 148° (SSE) 20:50:56 145.825 - 145.975 CW/USB, Beacon 145.810 USB
HO-68 22 Aug 19:55:13 20:00:38 24° 51° (NE) 20:06:04 435.675 MHz FM
Sapphire 22 Aug 20:21:31 20:26:55 84° 122° (ESE) 20:32:23 437.095 MHz 1200 baud AX-25 AFSK
STRAND 1 22 Aug 20:43:20 20:48:28 88° 105° (ESE) 20:53:34 ?
PCSat 22 Aug 20:52:09 20:57:29 58° 309° (NW) 21:02:52 145.825 MHz
RS-15 22 Aug 20:55:05 21:04:08 31° 255° (WSW) 21:13:29 29.354 - 29.394 USB, Beacon 29.352 USB
ISS 22 Aug 21:27:23 21:29:58 21° 220° (SW) 21:32:32 145.800 FM
HO-68 22 Aug 21:40:23 21:47:33 88° 252° (WSW) 21:54:45 435.675 MHz FM
UKube-1 22 Aug 21:44:28 21:48:43 57° 71° (ENE) 21:53:00 145.840 MHz, 145.915 MHz
Oscar 11 22 Aug 22:00:02 22:04:11 48° 70° (ENE) 22:08:23 145.825 FM, Beacon 2401.500 USB
FUNcube-1 22 Aug 22:02:39 22:05:48 21° 63° (ENE) 22:09:00 145.950 - 145.970 MHz USB
Sapphire 22 Aug 22:06:39 22:11:01 24° 324° (NW) 22:15:25 437.095 MHz 1200 baud AX-25 AFSK
STRAND 1 22 Aug 22:23:56 22:26:59 16° 304° (NW) 22:30:02 ?
PCSat 22 Aug 22:38:30 22:42:05 17° 332° (NNW) 22:45:40 145.825 MHz
UKube-1 22 Aug 23:22:27 23:25:17 17° 269° (W) 23:28:09 145.840 MHz, 145.915 MHz
HO-68 22 Aug 23:31:28 23:36:14 19° 272° (W) 23:41:03 435.675 MHz FM
Oscar 11 22 Aug 23:37:28 23:40:38 20° 268° (W) 23:43:50 145.825 FM, Beacon 2401.500 USB
FUNcube-1 22 Aug 23:38:01 23:41:58 43° 262° (W) 23:45:59 145.950 - 145.970 MHz USB
Sapphire 22 Aug 23:55:05 23:56:32 11° 350° (N) 23:57:59 437.095 MHz 1200 baud AX-25 AFSK
MaSat-1 23 Aug 00:02:13 00:06:23 25° 43° (NE) 00:10:15 437.345 MHz
PCSat 23 Aug 00:27:28 00:27:54 10° 359° (N) 00:28:21 145.825 MHz
KITSAT 1 23 Aug 00:33:35 00:38:15 17° 100° (E) 00:42:54 435.175 FM
Saudisat 1A 23 Aug 01:17:11 01:20:48 25° 116° (ESE) 01:24:27 436.775 MHz
MaSat-1 23 Aug 01:39:04 01:43:57 60° 246° (WSW) 01:48:15 437.345 MHz
Sapphire 23 Aug 01:40:20 01:42:35 12° 17° (NNE) 01:44:50 437.095 MHz 1200 baud AX-25 AFSK
PCSat 23 Aug 02:10:30 02:13:48 16° 25° (NNE) 02:17:06 145.825 MHz
KITSAT 1 23 Aug 02:24:12 02:32:14 72° 120° (ESE) 02:40:18 435.175 FM
AO-Echo 23 Aug 02:33:46 02:36:08 14° 88° (E) 02:38:29 ?
Oscar 19 23 Aug 02:35:51 02:40:29 31° 95° (E) 02:45:04 437.125 CW, 437.150 USB
ITAMSAT 1 23 Aug 02:49:19 02:52:59 19° 90° (E) 02:56:38 435.822 SSB
Saudisat 1A 23 Aug 02:55:52 03:00:09 49° 315° (NW) 03:04:29 436.775 MHz
Gurwin Techsat 1B 23 Aug 02:57:46 02:58:44 10° 84° (E) 02:59:42 435.225 FM
Uribyol 2 23 Aug 03:01:06 03:05:23 26° 93° (E) 03:09:40 436.500 FM
Oscar 16 23 Aug 03:08:54 03:14:04 61° 101° (ESE) 03:19:13 437.025 USB, Beacon 2401.1428
